Home > Weather > Traiskirchen > Past weeks

Flag for Austria Weather for the Past 2 Weeks in Traiskirchen, Lower Austria, Austria

Now
44 °F

Rain showers. Overcast.


Feels Like: 43 °F
Forecast: 38 / 51 °F
Wind: 3 mph from Northwest

Location: Wien / Schwechat-Flughafen

Current Time: Feb 9, 2016 at 5:37:29 AM

Latest Report: Feb 9, 2016 at 4:00 AM


Visibility: 11 mi

Pressure: 29.88 "Hg

Humidity: 84%

Dew point: 39 °F

Location of TraiskirchenLocation

Historic Weather in Traiskirchen — Graph

°F

Traiskirchen Temperature Yesterday

Maximum temperature yesterday: 54 °F (at 4:00 PM)
Minimum temperature yesterday: 44 °F (at 8:00 AM)
Average temperature yesterday: 49 °F

High & Low Weather Summary for the Past Weeks

 TemperatureHumidityPressure
High62 °F (Jan 28, 1:00 PM)100% (Jan 25, 10:00 AM)30.44 "Hg (Jan 25, 10:00 AM)
Low30 °F (Jan 27, 9:00 AM)39% (Jan 28, 1:00 PM)29.70 "Hg (Feb 8, 9:00 PM)
Average44 °F79%30.15 "Hg
* Reported Jan 25 5:00 AM — Feb 9 4:00 AM, Traiskirchen, Weather by CustomWeather, © 2016

Note: Actual official high and low records may vary slightly from our data, if they occured in-between our weather recording intervals... More about our weather records

Advertising

Traiskirchen Weather History for the Previous 24 Hours

 ConditionsComfort  
Time TempWeatherWind HumidityBarometerVisibility
4:00 AM
Tue, Feb 9
44 °FRain showers. Overcast.3 mph84%29.88 "Hg11 mi
2:00 AM46 °FOvercast.N/A77%29.83 "Hg28 mi
1:00 AM49 °FPassing clouds.6 mph70%29.82 "Hg31 mi
12:00 AM44 °FPassing clouds.3 mph84%29.79 "Hg19 mi
10:00 PM
Mon, Feb 8
49 °FOvercast.6 mph75%29.72 "Hg31 mi
9:00 PM52 °FOvercast.9 mph72%29.70 "Hg31 mi
8:00 PM51 °FOvercast.9 mph71%29.70 "Hg31 mi
7:00 PM52 °FOvercast.9 mph68%29.71 "Hg31 mi
6:00 PM53 °FOvercast.9 mph66%29.73 "Hg31 mi
5:00 PM53 °FOvercast.9 mph64%29.75 "Hg31 mi
4:00 PM54 °FOvercast.10 mph62%29.75 "Hg31 mi
3:00 PM52 °FOvercast.7 mph66%29.78 "Hg25 mi
2:00 PM51 °FOvercast.8 mph68%29.80 "Hg22 mi
1:00 PM49 °FScattered clouds.8 mph68%29.84 "Hg12 mi
12:00 PM47 °FOvercast.8 mph76%29.89 "Hg22 mi
11:00 AM46 °FOvercast.7 mph75%29.91 "Hg22 mi
10:00 AM46 °FOvercast.3 mph77%29.93 "Hg11 mi
9:00 AM45 °FOvercast.N/A78%29.95 "Hg22 mi
8:00 AM44 °FOvercast.N/A80%29.96 "Hg19 mi
7:00 AM44 °FOvercast.N/A77%29.95 "Hg18 mi
6:00 AM47 °FOvercast.5 mph66%29.96 "Hg28 mi
5:00 AM47 °FOvercast.3 mph69%29.96 "Hg22 mi
Weather by CustomWeather, © 2016

See weather overviewHow to use our weather pages